Weather History for PAEN - October, 2013

Change the Weather History Date:

Wednesday, October 30, 2013

  Actual Average (PANC) Record (PANC)
Temperature  
Mean Temperature 44 °F 28 °F  
Max Temperature 46 °F 33 °F 54 °F (1926)
Min Temperature 41 °F 22 °F -3 °F (1956)
Degree Days  
Heating Degree Days 22    
Month to date heating degree days  
Since 1 July heating degree days  
Cooling Degree Days 0    
Month to date cooling degree days  
Year to date cooling degree days  
Moisture  
Dew Point 35 °F    
Average Humidity 74    
Maximum Humidity 85    
Minimum Humidity 63    
Precipitation  
Precipitation 0.01 in 0.04 in 1.20 in (1996)
Month to date precipitation 1.99  
Year to date precipitation 14.27  
Snow  
Snow 0.00 in 0.40 in 8.50 in (1996)
Month to date snowfall 7.6  
Since 1 July snowfall 8.0  
Since 1 September snowfall 8.0  
Snow Depth -    
Sea Level Pressure  
Sea Level Pressure 29.12 in    
Wind  
Wind Speed 20 mph (NNE)    
Max Wind Speed 26 mph    
Max Gust Speed 34 mph    
Visibility 10 miles    
Events Rain    
T = Trace of Precipitation, MM = Missing Value Source: NWS Daily Summary

Daily Weather History Graph

Daily Weather History Graph

Search for Another Location

Airport or City:

Trip Planner

Search our weather history database for the weather conditions in past years. The results will help you decide how hot, cold, wet, or windy it might be!

Date:

Astronomy

Oct. 30, 2013 Rise Set
Actual Time 9:25 AM AKDT 6:10 PM AKDT
Civil Twilight 8:39 AM AKDT 6:56 PM AKDT
Nautical Twilight 7:49 AM AKDT 7:46 PM AKDT
Astronomical Twilight 7:00 AM AKDT 8:35 PM AKDT
Moon 4:26 AM AKDT 4:51 PM AKDT
Length of Visible Light 10h 16m
Length of Day
8h 44m
Waning Crescent, 16% of the Moon is Illuminated
Oct 30
Waning Crescent
Nov 3
New
Nov 9
First Quarter
Nov 17
Full
Nov 25
Last Quarter

Hourly Weather History & Observations

Time (AKDT) Temp. Windchill Dew Point Humidity Pressure Visibility Wind Dir Wind Speed Gust Speed Precip Events Conditions
12:53 AM 42.1 °F 33.6 °F 37.0 °F 82% 29.28 in 10.0 mi NNE 18.4 mph 26.5 mph N/A   Overcast
1:53 AM 42.1 °F 33.6 °F 36.0 °F 79% 29.24 in 10.0 mi NNE 18.4 mph 26.5 mph N/A   Mostly Cloudy
2:53 AM 42.1 °F 32.6 °F 36.0 °F 79% 29.20 in 10.0 mi North 23.0 mph - N/A   Overcast
3:53 AM 43.0 °F 33.5 °F 35.1 °F 74% 29.17 in 10.0 mi NNE 24.2 mph 34.5 mph N/A   Overcast
4:53 AM 42.1 °F 31.9 °F 35.1 °F 76% 29.15 in 10.0 mi NNE 26.5 mph 32.2 mph N/A   Overcast
5:53 AM 42.1 °F 33.6 °F 35.1 °F 76% 29.12 in 10.0 mi NNE 18.4 mph 28.8 mph N/A   Scattered Clouds
6:53 AM 42.1 °F 32.6 °F 34.0 °F 73% 29.10 in 10.0 mi NNE 23.0 mph 34.5 mph N/A   Mostly Cloudy
7:53 AM 41.0 °F 31.6 °F 34.0 °F 76% 29.08 in 10.0 mi NNE 20.7 mph - N/A   Scattered Clouds
8:53 AM 41.0 °F 31.4 °F 34.0 °F 76% 29.07 in 10.0 mi NE 21.9 mph 27.6 mph N/A   Scattered Clouds
9:53 AM 42.1 °F 32.8 °F 33.1 °F 70% 29.06 in 10.0 mi NNE 21.9 mph 29.9 mph N/A   Partly Cloudy
10:53 AM 43.0 °F 34.0 °F 34.0 °F 71% 29.07 in 10.0 mi NNE 21.9 mph 28.8 mph N/A   Overcast
11:53 AM 45.0 °F 36.0 °F 34.0 °F 65% 29.07 in 10.0 mi NNE 25.3 mph 33.4 mph N/A   Partly Cloudy
12:53 PM 44.1 °F 35.2 °F 34.0 °F 68% 29.07 in 10.0 mi NNE 23.0 mph 29.9 mph N/A   Partly Cloudy
1:53 PM 46.0 °F 38.3 °F 35.1 °F 66% 29.06 in 10.0 mi NNE 20.7 mph 27.6 mph N/A   Partly Cloudy
2:53 PM 46.0 °F 37.8 °F 35.1 °F 66% 29.07 in 10.0 mi NNE 23.0 mph 26.5 mph N/A   Overcast
3:53 PM 46.9 °F - 35.1 °F 63% 29.06 in 10.0 mi North 21.9 mph - N/A   Partly Cloudy
4:53 PM 45.0 °F 37.6 °F 35.1 °F 68% 29.08 in 10.0 mi NNE 17.3 mph - N/A   Partly Cloudy
5:53 PM 44.1 °F 36.2 °F 36.0 °F 73% 29.08 in 10.0 mi NNE 18.4 mph - N/A   Overcast
6:53 PM 43.0 °F 36.4 °F 37.0 °F 80% 29.09 in 10.0 mi North 12.7 mph - 0.00 in   Overcast
7:53 PM 43.0 °F 36.4 °F 37.9 °F 82% 29.11 in 10.0 mi North 12.7 mph - 0.00 in   Overcast
8:53 PM 42.1 °F 35.7 °F 37.9 °F 85% 29.12 in 10.0 mi North 11.5 mph - 0.00 in Rain Light Rain
9:53 PM 43.0 °F 36.4 °F 37.0 °F 80% 29.13 in 10.0 mi North 12.7 mph - 0.01 in   Overcast
10:53 PM 43.0 °F 36.4 °F 36.0 °F 76% 29.14 in 10.0 mi North 12.7 mph - N/A   Overcast
11:53 PM 42.1 °F 37.7 °F 37.0 °F 82% 29.16 in 10.0 mi North 6.9 mph - 0.00 in   Overcast